Terminal Aerodrome Forecast
Issued by NWS

Home | Current Version | Previous Version | Graphics & Text | Print | Product List | Glossary On
Versions: 1 2 3 4 5 6 7 8 9 10 11 12 13 14 15 16 17
000
FTUS43 KGRB 211734
TAFATW
TAF
KATW 211734Z 2118/2218 11008KT P6SM -SHRA OVC020
     FM212000 08005KT 6SM -SHRA BR OVC010
     FM220200 07005KT 4SM BR OVC006
     FM220800 03003KT 2SM BR OVC005
     FM221500 01006KT P6SM BKN010=

USA.gov is the U.S. government's official web portal to all federal, state and local government web resources and services.